Regional Weather Roundup
Issued by NWS

Home | Current Version | Previous Version | Text Only | Print | Product List | Glossary On
Versions: 1 2 3 4 5 6 7 8 9 10 11 12 13 14 15 16 17 18 19 20 21 22 23 24 25 26 27 28 29 30 31 32 33 34 35 36 37 38 39 40 41 42 43 44 45 46 47 48 49 50
000
ASUS46 KPQR 270510
RWROR

OREGON REGIONAL WEATHER ROUNDUP
NATIONAL WEATHER SERVICE PORTLAND OR
1000 PM PDT SUN APR 26 2015

NOTE: "FAIR" INDICATES FEW OR NO CLOUDS BELOW 12,000 FEET WITH
NO SIGNIFICANT WEATHER AND/OR OBSTRUCTIONS TO VISIBILITY.

ORZ001>013-270600-
NORTHWEST OREGON


CITY           SKY/WX    TMP DP  RH WIND       PRES   REMARKS
ASTORIA        LGT RAIN  52  50  93 E5        30.24R FOG
NEWPORT        CLOUDY    54  52  94 E3        30.30S
PORTLAND       CLOUDY    54  51  90 E6        30.29R
VANCOUVER WA   CLOUDY    54  50  86 E3        30.29R
SCAPPOOSE      LGT RAIN  52  51  97 E3        30.28R FOG
HILLSBORO      LGT RAIN  53  51  93 SE5       30.28R FOG
AURORA         LGT RAIN  54  51  90 CALM      30.29R
MCMINNVILLE    CLOUDY    54  52  93 S7        30.29R
SALEM          CLOUDY    55  51  86 S8        30.28R
CORVALLIS      CLOUDY    55  52  88 S5        30.30R
EUGENE         CLOUDY    54  51  90 SE7       30.29R
$$

ORZ021-028-270600-
SOUTHWEST OREGON


CITY           SKY/WX    TMP DP  RH WIND       PRES   REMARKS
NORTH BEND     PTCLDY    52  52 100 N3        30.28S
BROOKINGS      CLEAR     51  51 100 CALM      30.23S
ROSEBURG       PTCLDY    57  48  72 CALM      30.27S
SEXTON SUMMIT  CLEAR     48  42  80 NE8       30.27S
MEDFORD        CLEAR     56  47  71 NE5       30.25R
$$

ORZ014>016-041-270600-
COLUMBIA GORGE


CITY           SKY/WX    TMP DP  RH WIND       PRES   REMARKS
TROUTDALE      LGT RAIN  56  48  74 CALM      30.28R
THE DALLES     CLOUDY    58  42  55 NW7       30.24R
$$

ORZ029>031-041-044-049-050-061>064-502-503-505>511-270600-
EASTERN OREGON


CITY           SKY/WX    TMP DP  RH WIND       PRES   REMARKS
REDMOND        MOCLDY    50  39  66 NW5       30.27R
BEND           PTCLDY    48  37  66 CALM      30.27S
PRINEVILLE     CLOUDY    48  37  66 CALM      30.27S
KLAMATH FALLS  PTCLDY    50  39  66 N13       30.26R
LAKEVIEW       PTCLDY    48  34  57 N10       30.28R
HERMISTON      MOCLDY    50  31  48 SE7       30.23R
PENDLETON      CLEAR     49  20  31 SE5       30.24R
JOHN DAY       CLEAR     48  26  42 CALM      30.26R
MEACHAM        CLEAR     33  26  75 CALM      30.27R
LA GRANDE      PTCLDY    41  19  42 NE7       30.25R
BAKER CITY     CLEAR     37  24  59 NW6       30.26R WCI  32
BURNS          CLEAR     40  20  44 NW6       30.26R
ROME             N/A     45  21  38 N10       30.22R
ONTARIO        CLEAR     44  24  45 N8        30.24R
$$


USA.gov is the U.S. government's official web portal to all federal, state and local government web resources and services.